Погода в Аэропорте

Россия / Республика Башкортостан     54°34′11″N   55°54′06″E
темп.,
°C
ветер,
м/с
пор.,
м/с
влажн.,
%
обл.,
%
осадки,
мм/ч
давл.,
гПа
погр.,
м
5 декабря, вс
вс523:00+2ююз102097100 0.4 1013943
02:00+1ююз91897100 1.7 1012908
05:00+1ююз71598100 3.8 1012851
08:000зюз38100100 5.6 1012494
11:00−1зюз3795100 8.8 1014414
14:000зюз3791100 0.1 1015403
17:00−3зюз2494100 0.1 101764
20:00−3зюз2395100 0.0 101866
6 декабря, пн
пн623:00−4зюз1195100 0.0 101939
02:00−3з1295100 0.0 101953
05:00−3сз2493100 0.0 1020161
08:00−4сз249437 0.0 1020114
11:00−5с359088 0.1 1022438
14:00−5ссз4580100 0.1 1024655
17:00−7ссз35835 0.1 1026198
20:00−9с23855 0.0 1028184
7 декабря, вт
вт723:00−10св238910 0.0 1029227
02:00−11всв2291100 0.0 1031174
05:00−11св2391100 0.0 1032207
08:00−11св229067 0.0 1034200
11:00−12св238818 0.0 1035179
14:00−11св238213 0.0 1036228
17:00−12всв23915 0.0 103681
20:00−13св229130 0.0 103765
8 декабря, ср
ср823:00−13всв119215 0.0 103728
02:00−12вюв2390100 0.0 103675
05:00−11юв258594 0.0 1036126
08:00−9юв268067 0.0 1036152
11:00−9ююв31178100 0.0 1036253
14:00−6ю61479100 0.0 1035371
17:00−4ю61488100 0.0 1034395
20:00−3ю61588100 0.0 1034381
9 декабря, чт
чт923:00−3ю5148794 0.0 1034388
02:00−3ю61486100 0.0 1034366
05:00−3ю51385100 0.0 1034338
08:00−4ю4128489 0.0 1034291
11:00−4ю41283100 0.0 1034325
14:00−2ююв41380100 0.0 1033345
17:00−4юв3685100 0.0 1033102
20:00−5юв229163 0.0 103323